DIAP

Abidjan/Port Bouet Airport

Airport
ICAO code
DIAP
IATA Code
ABJ
Summary
ICAO Region
AFI
ICAO Territory
Location

Port Bouet, Abidjan

Serving
Abidjan
Elevation
95 ft
Coordinates
5° 15' 41" N , 3° 55' 35" W
KCC
Metar
DIAP 270900Z 20006KT 170V230 9999 SCT012 30/26 Q1011 NOSIG

International airport serving the capital of the Ivory Coast.

Climatology

Tropical Monsoon climate (Köppen climate classification Am)

Runways

Designator Length Width Surface Rops
3/21 3000 50 ASP Yes/Yes

Airport map

Aerial View

SKYbrary Partners:

Safety knowledge contributed by: